2023/02/01 00:00:00,140.9,-3.3
2023/02/01 00:10:00,140.9,-3.5
2023/02/01 00:20:00,140.8,-3.5
2023/02/01 00:30:00,140.8,-3.5
2023/02/01 00:40:00,140.7,-3.5
2023/02/01 00:50:00,140.6,-3.4
2023/02/01 01:00:00,140.5,-3.1
2023/02/01 01:10:00,140.5,-2.8
2023/02/01 01:20:00,140.2,-2.5
2023/02/01 01:30:00,140.1,-2.5
2023/02/01 01:40:00,140.1,-2.4
2023/02/01 01:50:00,140.1,-2.7
2023/02/01 02:00:00,140.0,-3.3
2023/02/01 02:10:00,139.9,-3.1
2023/02/01 02:20:00,139.9,-2.7
2023/02/01 02:30:00,139.9,-3.6
2023/02/01 02:40:00,139.8,-3.4
2023/02/01 02:50:00,139.8,-2.5
2023/02/01 03:00:00,139.7,-2.4
2023/02/01 03:10:00,139.6,-2.2
2023/02/01 03:20:00,139.4,-2.0
2023/02/01 03:30:00,139.2,-2.1
2023/02/01 03:40:00,139.1,-2.1
2023/02/01 03:50:00,139.0,-1.9
2023/02/01 04:00:00,139.0,-1.9
2023/02/01 04:10:00,138.9,-2.1
2023/02/01 04:20:00,138.8,-2.1
2023/02/01 04:30:00,138.8,-2.2
2023/02/01 04:40:00,138.7,-2.3
2023/02/01 04:50:00,138.6,-2.1
2023/02/01 05:00:00,138.6,-2.1
2023/02/01 05:10:00,138.6,-2.2
2023/02/01 05:20:00,138.6,-2.4
2023/02/01 05:30:00,138.5,-2.8
2023/02/01 05:40:00,138.5,-3.1
2023/02/01 05:50:00,138.5,-3.1
2023/02/01 06:00:00,138.4,-2.8
2023/02/01 06:10:00,138.4,-2.3
2023/02/01 06:20:00,138.5,-1.7
2023/02/01 06:30:00,138.5,-2.1
2023/02/01 06:40:00,138.5,-1.7
2023/02/01 06:50:00,138.6,-1.4
2023/02/01 07:00:00,138.6,-1.1
2023/02/01 07:10:00,138.6,-1.1
2023/02/01 07:20:00,138.5,-0.7
2023/02/01 07:30:00,138.4,-0.4
2023/02/01 07:40:00,138.4,-0.1
2023/02/01 07:50:00,138.5, 0.0
2023/02/01 08:00:00,138.4,-0.4
2023/02/01 08:10:00,138.4,-0.3
2023/02/01 08:20:00,138.3,-0.1
2023/02/01 08:30:00,138.1,-0.2
2023/02/01 08:40:00,138.1, 0.4
2023/02/01 08:50:00,137.8, 0.8
2023/02/01 09:00:00,137.7, 1.2
2023/02/01 09:10:00,137.5, 1.4
2023/02/01 09:20:00,137.8, 1.1
2023/02/01 09:30:00,138.0, 1.1
2023/02/01 09:40:00,137.9, 1.4
2023/02/01 09:50:00,137.6, 2.3
2023/02/01 10:00:00,137.4, 2.5
2023/02/01 10:10:00,137.4, 3.2
2023/02/01 10:20:00,137.5, 3.5
2023/02/01 10:30:00,137.4, 4.3
2023/02/01 10:40:00,137.2, 5.3
2023/02/01 10:50:00,136.8, 5.5
2023/02/01 11:00:00,136.9, 3.4
2023/02/01 11:10:00,136.8, 2.4
2023/02/01 11:20:00,136.6, 1.9
2023/02/01 11:30:00,136.3, 1.7
2023/02/01 11:40:00,136.0, 1.8
2023/02/01 11:50:00,135.8, 1.8
2023/02/01 12:00:00,135.8, 2.2
2023/02/01 12:10:00,135.7, 2.4
2023/02/01 12:20:00,135.7, 2.4
2023/02/01 12:30:00,135.6, 2.1
2023/02/01 12:40:00,135.5, 1.9
2023/02/01 12:50:00,135.5, 1.9
2023/02/01 13:00:00,135.4, 1.8
2023/02/01 13:10:00,135.4, 1.5
2023/02/01 13:20:00,135.4, 1.8
2023/02/01 13:30:00,135.4, 1.7
2023/02/01 13:40:00,135.2, 2.0
2023/02/01 13:50:00,135.1, 1.8
2023/02/01 14:00:00,135.1, 2.2
2023/02/01 14:10:00,135.1, 2.2
2023/02/01 14:20:00,135.0, 2.1
2023/02/01 14:30:00,135.0, 2.1
2023/02/01 14:40:00,135.0, 2.3
2023/02/01 14:50:00,135.0, 1.6
2023/02/01 15:00:00,134.9, 1.5
2023/02/01 15:10:00,134.9, 2.4
2023/02/01 15:20:00,134.9, 2.3
2023/02/01 15:30:00,134.9, 2.3
2023/02/01 15:40:00,134.8, 2.4
2023/02/01 15:50:00,134.7, 2.4
2023/02/01 16:00:00,134.6, 2.2
2023/02/01 16:10:00,134.6, 1.7
2023/02/01 16:20:00,134.3, 1.7
2023/02/01 16:30:00,134.1, 1.6
2023/02/01 16:40:00,133.9, 1.7
2023/02/01 16:50:00,133.7, 1.4
2023/02/01 17:00:00,133.7, 0.8
2023/02/01 17:10:00,133.5, 0.9
2023/02/01 17:20:00,133.2, 1.0
2023/02/01 17:30:00,132.8, 1.0
2023/02/01 17:40:00,132.4, 1.0
2023/02/01 17:50:00,132.5, 1.1
2023/02/01 18:00:00,132.4, 1.1
2023/02/01 18:10:00,132.9, 1.0
2023/02/01 18:20:00,133.5, 0.8
2023/02/01 18:30:00,133.6, 1.0
2023/02/01 18:40:00,133.5, 1.1
2023/02/01 18:50:00,133.4, 1.1
2023/02/01 19:00:00,133.4, 1.1
2023/02/01 19:10:00,133.2, 0.9
2023/02/01 19:20:00,133.1, 0.9
2023/02/01 19:30:00,133.0, 0.9
2023/02/01 19:40:00,132.8, 0.9
2023/02/01 19:50:00,132.8, 1.2
2023/02/01 20:00:00,132.6, 0.8
2023/02/01 20:10:00,132.4, 0.6
2023/02/01 20:20:00,132.2, 0.8
2023/02/01 20:30:00,132.2, 0.7
2023/02/01 20:40:00,132.3, 0.5
2023/02/01 20:50:00,132.3, 0.4
2023/02/01 21:00:00,132.7, 0.3
2023/02/01 21:10:00,133.3, 0.3
2023/02/01 21:20:00,133.4, 0.4
2023/02/01 21:30:00,133.3, 0.0
2023/02/01 21:40:00,133.4, 0.0
2023/02/01 21:50:00,133.6,-0.3
2023/02/01 22:00:00,133.6,-0.3
2023/02/01 22:10:00,133.8,-0.4
2023/02/01 22:20:00,133.8,-0.5
2023/02/01 22:30:00,133.9,-0.6
2023/02/01 22:40:00,133.9,-0.5
2023/02/01 22:50:00,133.9,-0.6
2023/02/01 23:00:00,134.1,-0.5
2023/02/01 23:10:00,134.1,-0.7
2023/02/01 23:20:00,134.3,-0.7
2023/02/01 23:30:00,134.5,-0.8
2023/02/01 23:40:00,134.5,-0.8
2023/02/01 23:50:00,134.7,-1.0
